Regional Weather Roundup
Issued by NWS

Home | Current Version | Previous Version | Graphics & Text | Print | Product List | Glossary On
Versions: 1 2 3 4 5 6 7 8 9 10 11 12 13 14 15 16 17 18 19 20 21 22 23 24 25 26 27 28 29 30 31 32 33 34 35 36 37 38 39 40 41 42 43 44 45 46 47 48 49 50
953
ASUS45 KSLC 260110
RWRUT

UTAH REGIONAL WEATHER ROUNDUP
NATIONAL WEATHER SERVICE SALT LAKE CITY UT
600 PM MST SAT FEB 25 2017

UTZ001>011-023>025-260200-

NORTHERN UTAH

CITY           SKY/WX    TMP DP  RH WIND       PRES   REMARKS
BRIGHAM CITY     N/A     30  20  67 SE3       30.00S
HILL AFB       PTCLDY    28  16  59 W7        29.97F WCI  21
LOGAN            N/A     28  17  63 S5        29.98F WCI  23
OGDEN          PTCLDY    30  13  49 W8        29.98S WCI  22
SALT LAKE CITY PTCLDY    32  19  58 CALM      30.00F
TOOELE VALLEY  PTCLDY    32  19  59 CALM      30.00F
WENDOVER       CLOUDY    36  12  38 E3        29.99S
HEBER CITY     CLOUDY    21  16  79 CALM      29.93S
WEST JORDAN    CLOUDY    31  30  95 CALM      30.00F

$$

UTZ011>015-024>027-260200-

CENTRAL/NORTHEAST UTAH

CITY           SKY/WX    TMP DP  RH WIND       PRES   REMARKS
PROVO AIRPORT  PTCLDY    28  14  55 CALM      30.01S
MOAB/CANYONLAN CLOUDY    38   9  30 NW13      29.90S WCI  30
DELTA          CLOUDY    32  18  55 N6        29.97F WCI  26
PRICE          PTCLDY    28  10  46 W9        29.90S WCI  19
RICHFIELD      CLOUDY    32  16  51 E1G14     29.96
ROOSEVELT      PTCLDY    30  14  51 W10       29.94S WCI  21
VERNAL         CLEAR     22  12  65 NE5       29.92R WCI  16

$$

UTZ013>016-019>022-027-260200-

SOUTHERN UTAH

CITY           SKY/WX    TMP DP  RH WIND       PRES   REMARKS
BRYCE CANYON   MOCLDY    25  13  60 NW6       29.88F WCI  18
CEDAR CITY     CLOUDY    36  15  42 SW12      29.90S WCI  28
MILFORD        CLOUDY    35  23  61 N8        29.93S WCI  29
ST GEORGE      PTCLDY    49  18  29 W9        29.96F
HANKSVILLE     MOCLDY    37  12  35 NW7       29.93S WCI  32
KANAB          CLEAR     41  12  30 W10       29.97
BLANDING       CLOUDY    35   7  31 SW9       29.96F WCI  27

$$

REGIONAL REPORTS     COLORADO/ARIZONA

CITY           SKY/WX    TMP DP  RH WIND       PRES   REMARKS
CRAIG, CO      FLURRIES  22  13  68 NW14G22   29.86F WCI   9
GRAND JUNCTION MOCLDY    37   6  27 W13G22    29.89F WCI  29
RIFLE, CO      PTCLDY    31  10  41 W12       29.87F WCI  22
MONTROSE, CO   CLOUDY    31   5  33 N8        29.89F WCI  23
CORTEZ, CO     CLOUDY    34   6  31 NW6       29.90F WCI  29
COLORADO CITY    N/A     41  18  38 W9        29.97S
PAGE, AZ       MOCLDY    45   6  20 NE3       29.89F
GRAND CANYON   CLOUDY    35  11  36 VRB6      29.94S WCI  30
KINGMAN, AZ    MOCLDY    50   0  12 SW13      29.95F
FLAGSTAFF, AZ  CLOUDY    35  13  40 SW17G24   29.94S WCI  25

$$

REGIONAL REPORTS    NEVADA/IDAHO/WYOMING

CITY           SKY/WX    TMP DP  RH WIND       PRES   REMARKS
LAS VEGAS, NV  CLOUDY    52  16  24 NE6       29.94F
ELY, NY        CLOUDY    27  16  63 N8        29.93F WCI  19
ELKO, NV       PTCLDY    31  13  47 W8        29.97F WCI  23
POCATELLO, ID  PTCLDY    19  13  77 SW10      29.98F WCI   7
BURLEY, ID     MIX PCPN  29  13  51 W12       29.98F WCI  19
FORT BRIDGER,  CLEAR     16  10  79 W15G24    29.87F WCI   1
EVANSTON, WY   LGT SNOW  15   9  76 W17       29.87S WCI  -1
ROCK SPRINGS,  CLEAR     15   7  70 W21       29.82F WCI  -2

$$




USA.gov is the U.S. government's official web portal to all federal, state and local government web resources and services.